Regional Weather Roundup
Issued by NWS Mobile, AL

Home | Current Version | Previous Version | Text Only | Print | Product List | Glossary On
Versions: 1 2 3 4 5 6 7 8 9 10 11 12 13 14 15 16 17 18 19 20 21 22 23 24 25 26 27 28 29 30 31 32 33 34 35 36 37 38 39 40 41 42 43 44 45 46 47 48 49 50
000
ASUS44 KMOB 051411
RWRMOB
REGIONAL WEATHER ROUNDUP
NATIONAL WEATHER SERVICE MOBILE AL
900 AM CDT SUN JUL 05 2015

ALZ061>064-051500-
COASTAL ALABAMA


CITY           SKY/WX    TMP DP  RH WIND       PRES   REMARKS
MOBILE REG APT CLOUDY    77  73  87 SE6       30.14S FOG
BROOKLEY FIELD CLOUDY    79  72  79 SE6       30.15R
GULF SHORES    CLOUDY    73  72  95 SE5       30.15F

$$

ALZ051>060-051500-
INTERIOR SOUTHWEST AND SOUTH CENTRAL ALABAMA


CITY           SKY/WX    TMP DP  RH WIND       PRES   REMARKS
ANDALUSIA/OPP  CLOUDY    73  70  88 SW5       30.20R THUNDER
EVERGREEN      CLOUDY    73  71  93 S3        30.18R
FLORALA        TSTM      69  68  96 N3        30.20R
GREENVILLE     PTSUNNY   73  69  87 W6        30.16S

$$

FLZ001>006-051500-
WESTERN FLORIDA PANHANDLE


CITY           SKY/WX    TMP DP  RH WIND       PRES   REMARKS
CRESTVIEW      LGT RAIN  73  72  96 NW7       30.19R
DESTIN         PTSUNNY   85  77  77 SE8       30.14S HX  95
DUKE FIELD     LGT RAIN  75  70  83 VRB2      30.15S
MARY ESTHER    TSTM      82  75  78 E2        30.13R
MILTON         TSTM      72  32  23 VRB5      30.16F
PENSACOLA      LGT RAIN  72  72 100 N3        30.16S
NAS PENSACOLA  TSTM      73  69  87 W5G17     30.16R FOG
VALPARAISO     TSTM      79  73  83 N12       30.14S

$$

...MARINE OBSERVATIONS...

STATION/POSITION TIME  SKY/WX   TEMP    WIND        PRES    VSBY
                                AIR SEA DIR/SP/G
                 (UTC)          (F)     (DEG/KT/KT) (MB)    (MI)
PASCAGOULA       1300            80     140/  1/  2 1019.7R
PETIT BOIS ISL   1300            86     220/  2/  3 1020.6R
E DAUPHIN ISLAND 1300            79     160/ 11/ 14 1020.2R
MIDDLE BAY LIGHT 1300            76      90/ 10     1020.0R
USCG MOBILE BAY  1300            78 84  210/  4/  6 1019.3S
STATE DOCKS      1300            79 85              1020.1F
MEAHER PARK      1300            79     250/  6     1020.0R
FORT MORGAN      1300            79     180/  8/ 10 1020.0R
12 S ORANGE BCH  1350            78 84  250/  6/  6 1020.2R
WVE H/P(F/S)=  2/ 3

PENSACOLA BAY    1300            82 84  240/ 10/ 12 1020.8R
64 S DAUPHIN ISL 1350            84 86  270/ 12/ 14 1020.4R
WVE H/P(F/S)=  1/ 5

67 S FORT MORGAN 1330            83     220/  6     1020.3R
115 SE PENSACOLA 1350            84 85  190/  8/  8 1021.1R
WVE H/P(F/S)=  2/ 5

MID GULF/42001   1350            84 85  140/  6/  8 1020.8R
WVE H/P(F/S)=  2/ 8

EAST GULF/42003  1350            85 86  110/  8/ 10 1020.3R
WVE H/P(F/S)=  2/ 8


$$

...NEARBY LOCATIONS

CITY           SKY/WX    TMP DP  RH WIND       PRES   REMARKS
GULFPORT       PTSUNNY   81  76  84 CALM      30.11R
BILOXI         NOT AVBL
PASCAGOULA     CLOUDY    78  77  96 CALM      30.12R
HATTIESBURG    MOSUNNY   77  73  87 CALM      30.14R
LAUREL         MOSUNNY   75  72  88 S5        30.14R
MERIDIAN       CLOUDY    72  70  93 S5        30.14R
MERIDIAN NAS   HVY RAIN  73  70  88 S6        30.14R FOG
MONTGOMERY     CLOUDY    73  69  87 CALM      30.15F FOG
MAXWELL AFB    CLOUDY    73  70  93 VRB2      30.14F
TROY           CLOUDY    72  69  90 CALM      30.17S
FORT RUCKER    TSTM      71  69  93 SW5       30.19R FOG
DALEVILLE      TSTM      70  69  98 SW3       30.20R
DOTHAN         TSTM      70  69  97 W7          N/A  FOG

$$

...OTHER SURROUNDING LOCATIONS...

CITY           SKY/WX    TMP DP  RH WIND       PRES   REMARKS
BIRMINGHAM     CLOUDY    73  67  81 W6        30.16S
TUSCALOOSA     CLOUDY    74  70  87 S10       30.12F
COLUMBUS GA    LGT RAIN  71  69  93 SW5       30.16F
PANAMA CITY    NOT AVBL
TALLAHASSEE    PTSUNNY   85  77  77 SW6       30.16R HX  95
BATON ROUGE    CLOUDY    80  76  87 S3        30.11S
NEW ORLEANS    CLOUDY    83  76  79 SW6       30.11S
SLIDELL        PTSUNNY   84  79  85 SW3       30.11R HX  96
JACKSON        CLOUDY    74  72  93 S7        30.11S THUNDER
MCCOMB         PTSUNNY   79  77  94 SW6       30.12S

$$

...SURROUNDING MARINE OBSERVATIONS...

STATION/POSITION TIME  SKY/WX   TEMP    WIND        PRES    VSBY
                                AIR SEA DIR/SP/G
                 (UTC)          (F)     (DEG/KT/KT) (MB)    (MI)
WAVELAND         1300            80 85   70/  3/  4 1019.6F
PASCAGOULA RGN A 1300            82     200/  3/  3 1019.5R
PASCAGOULA PORT  1300               84                N/A
GRAND ISLE       1300            84 85  240/  5/  6 1019.9F
SOUTHWEST PASS   1300            83     210/  8/  9 1020.2F
PILOT STATION E  1300            84 82  210/  5/  6 1020.4F
SHELL BEACH      1300            81 85  190/  4/  5 1018.9F
PANAMA CITY      1300            80 83  150/  4/  6 1020.1S
APALACHICOLA     1300            84 86   CALM  /  2 1020.7R
TYNDALL TOWER C  1400            83     180/  5/  5 1021.1R
S APLCHCLA/42036 1350            85 86  170/  4/  6 1021.0F
WVE H/P(F/S)=  1/ 8


$$




USA.gov is the U.S. government's official web portal to all federal, state and local government web resources and services.